FW4092 Weather Reports


Display with metric or nautical units.
time (UTC)temp
F
wind
direction
speed
MPH
gust
MPH
rain 1hr
in
rain 24hr
in
rain mn
in
humidity
%
barometer
mb
20260508104629 44 221 1.0 2.0 0.00 0.00 0.00 57 1014.0
20260508104358 44 225 0.0 2.0 0.00 0.00 0.00 56 1014.1
20260508103619 44 220 0.0 2.0 0.00 0.00 0.00 56 1014.1
20260508103114 44 232 0.0 2.0 0.00 0.00 0.00 56 1014.1
20260508102612 44 235 0.0 1.0 0.00 0.00 0.00 56 1014.1
20260508102100 45 235 0.0 1.0 0.00 0.00 0.00 54 1014.1
20260508101559 46 234 0.0 3.0 0.00 0.00 0.00 54 1013.9
20260508101052 46 235 0.0 3.0 0.00 0.00 0.00 54 1013.9
20260508100542 46 204 0.0 2.0 0.00 0.00 0.00 54 1013.9
20260508100035 47 208 1.0 2.0 0.00 0.00 0.00 52 1013.9
20260508095529 47 117 1.0 2.0 0.00 0.00 0.00 52 1013.8
20260508095025 48 115 0.0 2.0 0.00 0.00 0.00 51 1013.9
20260508094516 49 144 0.0 2.0 0.00 0.00 0.00 50 1013.8
20260508094250 49 144 0.0 0.0 0.00 0.00 0.00 49 1013.8
20260508093509 50 144 0.0 0.0 0.00 0.00 0.00 49 1013.8
20260508092959 50 144 0.0 1.0 0.00 0.00 0.00 49 1013.8
20260508092454 51 144 0.0 1.0 0.00 0.00 0.00 48 1013.8
20260508091948 51 144 0.0 1.0 0.00 0.00 0.00 47 1013.8
20260508091441 52 140 0.0 1.0 0.00 0.00 0.00 46 1013.6
20260508091217 53 140 0.0 0.0 0.00 0.00 0.00 45 1013.8
20260508090432 53 141 0.0 0.0 0.00 0.00 0.00 45 1013.6
20260508085923 53 141 0.0 0.0 0.00 0.00 0.00 45 1013.6
20260508085421 53 141 0.0 0.0 0.00 0.00 0.00 45 1013.6
20260508084916 53 141 0.0 0.0 0.00 0.00 0.00 45 1013.6
20260508084410 53 141 0.0 0.0 0.00 0.00 0.00 45 1013.6
20260508083905 53 141 0.0 0.0 0.00 0.00 0.00 45 1013.6
20260508083355 53 141 0.0 1.0 0.00 0.00 0.00 45 1013.8
20260508082847 53 141 0.0 1.0 0.00 0.00 0.00 45 1013.8
20260508082341 53 140 0.0 1.0 0.00 0.00 0.00 45 1013.8
20260508081838 54 141 0.0 1.0 0.00 0.00 0.00 45 1013.9
20260508081332 54 140 0.0 2.0 0.00 0.00 0.00 44 1013.9
20260508080825 54 141 1.0 3.0 0.00 0.00 0.00 44 1013.8
20260508080317 54 141 1.0 3.0 0.00 0.00 0.00 44 1013.9
20260508075818 54 147 1.0 3.0 0.00 0.00 0.00 45 1013.9
20260508075307 54 150 1.0 3.0 0.00 0.00 0.00 45 1013.8
20260508074749 53 168 0.0 2.0 0.00 0.00 0.00 45 1013.8
20260508074244 54 169 1.0 4.0 0.00 0.00 0.00 45 1013.8
20260508073740 54 169 1.0 4.0 0.00 0.00 0.00 44 1013.8
20260508073234 54 147 0.0 3.0 0.00 0.00 0.00 44 1013.6
20260508072735 54 147 1.0 3.0 0.00 0.00 0.00 44 1013.8
20260508072246 55 146 1.0 3.0 0.00 0.00 0.00 43 1013.6
20260508071747 56 146 1.0 3.0 0.00 0.00 0.00 42 1013.6
20260508071245 56 148 0.0 3.0 0.00 0.00 0.00 41 1013.8
20260508070744 57 259 0.0 0.0 0.00 0.00 0.00 40 1013.6
20260508070240 57 257 0.0 0.0 0.00 0.00 0.00 39 1013.6
20260508065738 58 257 0.0 3.0 0.00 0.00 0.00 38 1013.6
20260508065234 58 257 0.0 3.0 0.00 0.00 0.00 38 1013.6
20260508065011 58 257 0.0 3.0 0.00 0.00 0.00 37 1013.5
20260508064232 59 259 1.0 3.0 0.00 0.00 0.00 37 1013.5
20260508063732 60 262 1.0 4.0 0.00 0.00 0.00 36 1013.6
20260508063229 60 279 3.0 9.0 0.00 0.00 0.00 36 1013.5
20260508062730 61 283 4.0 10.0 0.00 0.00 0.00 35 1013.5
20260508062232 61 288 5.0 15.0 0.00 0.00 0.00 34 1013.4
20260508061731 61 215 5.0 15.0 0.00 0.00 0.00 35 1013.4
20260508061231 61 219 5.0 13.0 0.00 0.00 0.00 35 1013.4
20260508060734 61 297 5.0 11.0 0.00 0.00 0.00 36 1013.4
20260508060730 61 277 4.0 10.0 0.00 0.00 0.00 36 1013.4
20260508060227 61 269 6.0 12.0 0.00 0.00 0.00 36 1013.4
20260508055226 61 306 5.0 12.0 0.00 0.00 0.00 36 1013.3
20260508054719 60 253 5.0 10.0 0.00 0.00 0.00 37 1013.3
20260508054212 60 273 5.0 10.0 0.00 0.00 0.00 37 1013.4
20260508053927 59 265 3.0 9.0 0.00 0.00 0.00 38 1013.4
20260508053200 58 272 2.0 8.0 0.00 0.00 0.00 39 1013.4
20260508052653 59 254 1.0 3.0 0.00 0.00 0.00 39 1013.3
20260508052148 60 281 1.0 3.0 0.00 0.00 0.00 40 1013.3
20260508051641 60 249 1.0 4.0 0.00 0.00 0.00 40 1013.3
20260508051135 60 321 1.0 4.0 0.00 0.00 0.00 40 1013.2
20260508050629 61 326 2.0 8.0 0.00 0.00 0.00 40 1013.2
20260508050123 61 328 3.0 8.0 0.00 0.00 0.00 38 1013.2
20260508045620 61 337 2.0 6.0 0.00 0.00 0.00 37 1013.2
20260508045111 62 290 2.0 5.0 0.00 0.00 0.00 35 1013.3
20260508044829 62 309 3.0 8.0 0.00 0.00 0.00 34 1013.3
20260508044100 62 310 3.0 8.0 0.00 0.00 0.00 33 1013.3
20260508043553 63 334 4.0 11.0 0.00 0.00 0.00 32 1013.2
20260508043047 63 347 4.0 11.0 0.00 0.00 0.00 31 1013.3
20260508042818 63 342 4.0 11.0 0.00 0.00 0.00 29 1013.2
20260508042314 64 289 5.0 12.0 0.00 0.00 0.00 29 1013.2
20260508041530 64 309 6.0 12.0 0.00 0.00 0.00 28 1013.2
20260508041024 64 292 6.0 12.0 0.00 0.00 0.00 27 1013.2
20260508040749 64 242 6.0 13.0 0.00 0.00 0.00 27 1013.0
20260508040013 65 313 6.0 13.0 0.00 0.00 0.00 26 1013.0
20260508035237 65 279 6.0 12.0 0.00 0.00 0.00 26 1012.8
20260508035233 65 312 6.0 16.0 0.00 0.00 0.00 26 1012.8
20260508033947 64 286 5.0 12.0 0.00 0.00 0.00 26 1012.8
20260508033441 64 279 4.0 8.0 0.00 0.00 0.00 27 1012.8
20260508032935 64 271 3.0 7.0 0.00 0.00 0.00 27 1012.8
20260508032430 65 304 3.0 8.0 0.00 0.00 0.00 26 1012.8
20260508031923 66 286 3.0 10.0 0.00 0.00 0.00 26 1012.8
20260508031417 67 293 4.0 10.0 0.00 0.00 0.00 25 1012.7
20260508030912 67 300 5.0 10.0 0.00 0.00 0.00 25 1012.7
20260508030408 67 266 6.0 11.0 0.00 0.00 0.00 24 1012.7
20260508025859 68 303 6.0 12.0 0.00 0.00 0.00 24 1012.6
20260508025630 69 311 6.0 12.0 0.00 0.00 0.00 24 1012.6
20260508024847 69 304 7.0 12.0 0.00 0.00 0.00 24 1012.4
20260508024400 69 287 7.0 13.0 0.00 0.00 0.00 24 1012.3
20260508023329 70 331 7.0 14.0 0.00 0.00 0.00 23 1012.3
20260508022823 71 241 6.0 13.0 0.00 0.00 0.00 24 1012.2
20260508022317 71 272 6.0 14.0 0.00 0.00 0.00 24 1012.2
20260508021811 71 219 7.0 14.0 0.00 0.00 0.00 23 1012.2
20260508021316 72 251 7.0 16.0 0.00 0.00 0.00 24 1012.2
20260508020812 72 321 7.0 16.0 0.00 0.00 0.00 24 1012.2
20260508020311 72 275 7.0 14.0 0.00 0.00 0.00 23 1012.3
20260508015811 72 269 8.0 14.0 0.00 0.00 0.00 24 1012.2
20260508015311 72 292 8.0 17.0 0.00 0.00 0.00 23 1012.3
20260508014812 73 279 8.0 17.0 0.00 0.00 0.00 23 1012.3
20260508014538 73 252 8.0 15.0 0.00 0.00 0.00 24 1012.4
20260508014050 74 269 8.0 17.0 0.00 0.00 0.00 23 1012.4
20260508013311 74 248 9.0 18.0 0.00 0.00 0.00 24 1012.3
20260508012811 74 261 9.0 18.0 0.00 0.00 0.00 22 1012.4
20260508012311 75 255 8.0 14.0 0.00 0.00 0.00 24 1012.3
20260508011811 75 281 8.0 16.0 0.00 0.00 0.00 24 1012.4
20260508011310 75 267 9.0 18.0 0.00 0.00 0.00 23 1012.4
20260508010810 75 336 9.0 18.0 0.00 0.00 0.00 21 1012.3
20260508010309 75 223 9.0 15.0 0.00 0.00 0.00 23 1012.4
20260508005809 75 301 9.0 17.0 0.00 0.00 0.00 21 1012.3
20260508005550 75 300 9.0 21.0 0.00 0.00 0.00 21 1012.3
20260508004819 75 292 10.0 23.0 0.00 0.00 0.00 20 1012.3
20260508004318 76 250 9.0 23.0 0.00 0.00 0.00 20 1012.2
20260508003816 76 269 8.0 18.0 0.00 0.00 0.00 19 1012.2
20260508003344 76 282 8.0 17.0 0.00 0.00 0.00 19 1012.1
20260508003340 76 279 9.0 17.0 0.00 0.00 0.00 19 1012.1
20260508002301 76 254 9.0 20.0 0.00 0.00 0.00 20 1012.0
20260508001815 76 246 10.0 20.0 0.00 0.00 0.00 20 1012.0
20260508001334 77 263 9.0 18.0 0.00 0.00 0.00 19 1011.9
20260508001329 76 234 9.0 18.0 0.00 0.00 0.00 19 1012.0
20260508001042 76 316 10.0 20.0 0.00 0.00 0.00 20 1011.9
20260507235756 76 265 10.0 20.0 0.00 0.00 0.00 19 1011.9
20260507235257 77 326 9.0 22.0 0.00 0.00 0.00 19 1011.9
20260507234834 78 293 9.0 22.0 0.00 0.00 0.00 21 1011.8
20260507234820 77 296 9.0 22.0 0.00 0.00 0.00 19 1011.8
20260507233755 77 288 9.0 22.0 0.00 0.00 0.00 19 1011.8
20260507233311 78 254 9.0 17.0 0.00 0.00 0.00 18 1011.9
20260507232758 77 267 10.0 20.0 0.00 0.00 0.00 19 1011.9
20260507232255 78 303 10.0 20.0 0.00 0.00 0.00 18 1011.9
20260507231754 77 283 11.0 20.0 0.00 0.00 0.00 19 1011.8
20260507231248 77 294 10.0 20.0 0.00 0.00 0.00 19 1011.9
20260507230742 77 236 10.0 19.0 0.00 0.00 0.00 19 1011.9
20260507230236 76 314 11.0 18.0 0.00 0.00 0.00 20 1011.9
20260507225730 77 269 11.0 18.0 0.00 0.00 0.00 19 1012.0
20260507225224 77 284 10.0 18.0 0.00 0.00 0.00 20 1012.2
20260507224718 77 298 10.0 19.0 0.00 0.00 0.00 19 1012.2
20260507224213 77 241 10.0 19.0 0.00 0.00 0.00 19 1012.2
20260507223709 77 276 10.0 20.0 0.00 0.00 0.00 19 1012.3
20260507223200 78 267 10.0 20.0 0.00 0.00 0.00 19 1012.4
20260507222654 78 252 9.0 17.0 0.00 0.00 0.00 20 1012.4
20260507222148 78 338 9.0 16.0 0.00 0.00 0.00 21 1012.6
20260507221642 78 305 8.0 15.0 0.00 0.00 0.00 21 1012.6
20260507221138 78 348 7.0 15.0 0.00 0.00 0.00 22 1012.7
20260507220630 78 289 7.0 15.0 0.00 0.00 0.00 22 1012.6
20260507220125 78 339 8.0 15.0 0.00 0.00 0.00 22 1012.7
20260507215618 78 239 8.0 15.0 0.00 0.00 0.00 21 1012.7
20260507215112 78 345 8.0 16.0 0.00 0.00 0.00 23 1012.7
20260507214609 78 247 8.0 16.0 0.00 0.00 0.00 22 1012.7
20260507214100 78 350 7.0 16.0 0.00 0.00 0.00 22 1012.8
20260507213555 78 288 7.0 16.0 0.00 0.00 0.00 23 1012.8
20260507213048 78 244 6.0 13.0 0.00 0.00 0.00 22 1012.7
20260507212543 78 281 6.0 13.0 0.00 0.00 0.00 25 1012.8
20260507212035 78 350 8.0 16.0 0.00 0.00 0.00 24 1012.8
20260507211531 78 284 7.0 15.0 0.00 0.00 0.00 25 1012.8
20260507211027 78 355 6.0 13.0 0.00 0.00 0.00 25 1012.8
20260507210522 77 286 6.0 11.0 0.00 0.00 0.00 26 1012.9
20260507210247 77 340 6.0 14.0 0.00 0.00 0.00 25 1013.0
20260507205509 77 313 7.0 14.0 0.00 0.00 0.00 22 1013.0
20260507205232 77 290 6.0 14.0 0.00 0.00 0.00 21 1013.1
20260507204454 77 325 6.0 14.0 0.00 0.00 0.00 21 1013.2
20260507204209 76 324 7.0 17.0 0.00 0.00 0.00 21 1013.2
20260507203442 76 351 7.0 17.0 0.00 0.00 0.00 20 1013.2
20260507203227 76 337 6.0 14.0 0.00 0.00 0.00 21 1013.3
20260507202436 75 275 5.0 11.0 0.00 0.00 0.00 22 1013.3
20260507201937 75 355 5.0 13.0 0.00 0.00 0.00 20 1013.3
20260507201436 75 333 4.0 13.0 0.00 0.00 0.00 21 1013.4
20260507200934 75 274 3.0 11.0 0.00 0.00 0.00 24 1013.5
20260507200436 74 32 3.0 9.0 0.00 0.00 0.00 25 1013.5
20260507195934 74 269 4.0 10.0 0.00 0.00 0.00 24 1013.5
20260507195717 74 18 3.0 10.0 0.00 0.00 0.00 26 1013.6
20260507194941 74 13 2.0 10.0 0.00 0.00 0.00 28 1013.6
20260507194440 73 0 2.0 6.0 0.00 0.00 0.00 29 1013.6
20260507193938 73 69 3.0 8.0 0.00 0.00 0.00 27 1013.8
20260507193441 73 203 4.0 8.0 0.00 0.00 0.00 27 1013.8
20260507192940 73 200 4.0 9.0 0.00 0.00 0.00 28 1013.8
20260507192501 73 271 4.0 9.0 0.00 0.00 0.00 29 1013.9
20260507191713 72 260 5.0 11.0 0.00 0.00 0.00 29 1014.0
20260507190931 72 294 4.0 10.0 0.00 0.00 0.00 30 1014.0
20260507190458 72 267 4.0 10.0 0.00 0.00 0.00 30 1014.2
20260507190454 72 260 4.0 9.0 0.00 0.00 0.00 29 1014.1
20260507185430 71 282 4.0 10.0 0.00 0.00 0.00 30 1014.2
20260507184930 71 276 2.0 8.0 0.00 0.00 0.00 33 1014.2
20260507184430 70 346 3.0 6.0 0.00 0.00 0.00 35 1014.3
20260507183929 70 0 4.0 9.0 0.00 0.00 0.00 35 1014.4
20260507183431 69 315 2.0 9.0 0.00 0.00 0.00 36 1014.4
20260507182927 69 355 2.0 6.0 0.00 0.00 0.00 37 1014.5
20260507182424 69 317 2.0 6.0 0.00 0.00 0.00 36 1014.5
20260507181924 69 345 2.0 4.0 0.00 0.00 0.00 37 1014.5
20260507181712 69 67 2.0 6.0 0.00 0.00 0.00 37 1014.5
20260507180922 69 343 2.0 6.0 0.00 0.00 0.00 38 1014.6
20260507180711 68 344 2.0 6.0 0.00 0.00 0.00 40 1014.6
20260507175920 68 119 3.0 6.0 0.00 0.00 0.00 39 1014.7
20260507175420 68 118 2.0 8.0 0.00 0.00 0.00 40 1014.7
20260507174919 68 148 2.0 8.0 0.00 0.00 0.00 40 1014.8
20260507174427 67 113 3.0 8.0 0.00 0.00 0.00 41 1014.8
20260507174145 67 135 3.0 8.0 0.00 0.00 0.00 41 1015.0
20260507173421 67 355 2.0 6.0 0.00 0.00 0.00 43 1015.0
20260507172918 66 0 1.0 5.0 0.00 0.00 0.00 43 1015.0
20260507172418 65 306 2.0 5.0 0.00 0.00 0.00 44 1015.0
20260507171917 66 13 2.0 5.0 0.00 0.00 0.00 42 1015.1
20260507171417 66 121 3.0 5.0 0.00 0.00 0.00 43 1015.1
20260507170911 65 263 2.0 6.0 0.00 0.00 0.00 44 1015.1
20260507170649 65 232 1.0 6.0 0.00 0.00 0.00 45 1015.1
20260507165859 65 221 2.0 6.0 0.00 0.00 0.00 47 1015.1
20260507165354 64 221 2.0 6.0 0.00 0.00 0.00 47 1015.1
20260507164848 64 255 1.0 4.0 0.00 0.00 0.00 47 1015.2
20260507164341 64 202 2.0 8.0 0.00 0.00 0.00 48 1015.1
20260507163837 64 223 2.0 8.0 0.00 0.00 0.00 48 1015.2
20260507163330 63 255 2.0 5.0 0.00 0.00 0.00 49 1015.1
20260507162823 63 239 2.0 6.0 0.00 0.00 0.00 49 1015.1
20260507162317 62 53 3.0 6.0 0.00 0.00 0.00 51 1015.1
20260507161811 62 321 2.0 6.0 0.00 0.00 0.00 51 1015.1
20260507161308 62 316 1.0 5.0 0.00 0.00 0.00 51 1015.1
20260507160803 61 348 3.0 8.0 0.00 0.00 0.00 52 1015.2
20260507160254 62 277 3.0 8.0 0.00 0.00 0.00 52 1015.2
20260507155747 61 355 2.0 8.0 0.00 0.00 0.00 54 1015.3
20260507155241 61 17 2.0 8.0 0.00 0.00 0.00 54 1015.3
20260507154735 61 32 2.0 9.0 0.00 0.00 0.00 54 1015.3
20260507154232 60 346 2.0 9.0 0.00 0.00 0.00 56 1015.3
20260507153723 60 325 1.0 5.0 0.00 0.00 0.00 57 1015.3
20260507153218 60 0 2.0 5.0 0.00 0.00 0.00 57 1015.3
20260507152951 60 9 1.0 5.0 0.00 0.00 0.00 57 1015.3
20260507152434 60 124 1.0 3.0 0.00 0.00 0.00 58 1015.3
20260507151700 59 124 1.0 5.0 0.00 0.00 0.00 59 1015.3
20260507151155 59 124 2.0 6.0 0.00 0.00 0.00 60 1015.3
20260507150935 58 277 1.0 6.0 0.00 0.00 0.00 60 1015.4
20260507150141 58 327 2.0 4.0 0.00 0.00 0.00 60 1015.3
20260507145916 58 346 2.0 4.0 0.00 0.00 0.00 60 1015.3
20260507145129 57 346 1.0 8.0 0.00 0.00 0.00 62 1015.4
20260507144623 57 300 2.0 8.0 0.00 0.00 0.00 62 1015.4
20260507144122 56 306 3.0 10.0 0.00 0.00 0.00 63 1015.4
20260507143621 56 335 4.0 10.0 0.00 0.00 0.00 64 1015.4
20260507143121 55 292 4.0 9.0 0.00 0.00 0.00 66 1015.3
20260507142622 55 316 3.0 9.0 0.00 0.00 0.00 68 1015.3
20260507142414 53 298 1.0 5.0 0.00 0.00 0.00 70 1015.3
20260507141902 53 194 1.0 5.0 0.00 0.00 0.00 67 1015.3
20260507141124 53 65 1.0 3.0 0.00 0.00 0.00 68 1015.2
20260507140621 52 63 0.0 2.0 0.00 0.00 0.00 69 1015.2
20260507140128 52 63 0.0 1.0 0.00 0.00 0.00 70 1015.2
20260507135653 52 63 0.0 0.0 0.00 0.00 0.00 69 1015.1
20260507134626 51 61 0.0 2.0 0.00 0.00 0.00 68 1015.0
20260507134125 52 61 0.0 2.0 0.00 0.00 0.00 68 1014.8
20260507133625 52 61 0.0 2.0 0.00 0.00 0.00 67 1014.8
20260507133123 53 58 0.0 0.0 0.00 0.00 0.00 65 1014.8
20260507132618 53 58 0.0 0.0 0.00 0.00 0.00 64 1014.7
20260507132355 54 58 0.0 2.0 0.00 0.00 0.00 63 1014.7
20260507131622 54 58 1.0 3.0 0.00 0.00 0.00 61 1014.7
20260507131118 55 57 2.0 5.0 0.00 0.00 0.00 60 1014.7
20260507130620 56 53 3.0 8.0 0.00 0.00 0.00 58 1014.7
20260507130120 56 326 4.0 10.0 0.00 0.00 0.00 58 1014.6
20260507125617 56 302 4.0 10.0 0.00 0.00 0.00 57 1014.6
20260507125123 56 310 5.0 13.0 0.00 0.00 0.00 56 1014.5
20260507124621 57 319 6.0 13.0 0.00 0.00 0.00 56 1014.5
20260507124119 57 336 6.0 12.0 0.00 0.00 0.00 56 1014.3
20260507123615 57 293 7.0 14.0 0.00 0.00 0.00 56 1014.3
20260507123116 57 284 7.0 14.0 0.00 0.00 0.00 55 1014.3
20260507122625 58 274 7.0 13.0 0.00 0.00 0.00 55 1014.3
20260507122614 57 259 7.0 14.0 0.00 0.00 0.00 55 1014.3
20260507121614 58 294 7.0 13.0 0.00 0.00 0.00 55 1014.4
20260507121115 58 318 7.0 15.0 0.00 0.00 0.00 54 1014.3
20260507120858 58 284 7.0 15.0 0.00 0.00 0.00 54 1014.4
20260507120122 58 304 7.0 13.0 0.00 0.00 0.00 55 1014.4
20260507115851 58 281 7.0 13.0 0.00 0.00 0.00 54 1014.4
20260507115116 57 278 6.0 13.0 0.00 0.00 0.00 56 1014.4
20260507114614 58 331 7.0 12.0 0.00 0.00 0.00 57 1014.5
20260507114341 58 275 7.0 13.0 0.00 0.00 0.00 58 1014.5
20260507113842 58 288 7.0 13.0 0.00 0.00 0.00 57 1014.6
20260507113100 58 310 6.0 13.0 0.00 0.00 0.00 56 1014.6
20260507112553 58 295 6.0 12.0 0.00 0.00 0.00 56 1014.5
20260507112046 58 283 6.0 12.0 0.00 0.00 0.00 54 1014.7
20260507111816 58 286 6.0 13.0 0.00 0.00 0.00 56 1014.7
20260507111034 57 257 5.0 13.0 0.00 0.00 0.00 55 1014.6
20260507110804 56 299 3.0 11.0 0.00 0.00 0.00 60 1014.6
20260507110022 56 301 4.0 9.0 0.00 0.00 0.00 62 1014.6
20260507105518 55 293 3.0 8.0 0.00 0.00 0.00 64 1014.7
20260507105011 55 301 2.0 5.0 0.00 0.00 0.00 65 1014.7